Page, AZ

3:35 AM MDT on April 22, 2018 (GMT -0600)
Page Municipal

Weather History for KPGA - September, 2012

Change the Weather History Date:

Thursday, September 6, 2012

  Actual Average Record
Temperature  
Mean Temperature 83 °F -  
Max Temperature 96 °F 88 °F 97 °F (1959)
Min Temperature 70 °F 63 °F 48 °F (1970)
Cooling Degree Days 18    
Growing Degree Days 33 (Base 50)    
Moisture  
Dew Point 48 °F    
Average Humidity 28    
Maximum Humidity 41    
Minimum Humidity 13    
Precipitation  
Precipitation 0.00 in - - ()
Sea Level Pressure  
Sea Level Pressure 29.82 in    
Wind  
Wind Speed 4 mph (West)    
Max Wind Speed 12 mph    
Max Gust Speed 21 mph    
Visibility 10 miles    
Events      
Averages and records for this station are not official NWS values.
T = Trace of Precipitation, MM = Missing Value Source: NWS Daily Summary

Daily Weather History Graph

Daily Weather History Graph

Search for Another Location

Airport or City:

Astronomy

Sep. 06, 2012 Rise Set
Actual Time 6:01 AM MST 6:46 PM MST
Civil Twilight 5:34 AM MST 7:12 PM MST
Nautical Twilight 5:03 AM MST 7:43 PM MST
Astronomical Twilight 4:31 AM MST 8:15 PM MST
Moon 10:09 PM MST (9/6) 11:53 AM MST (9/6)
Length of Visible Light 13h 37m
Length of Day
12h 44m
Waning Gibbous, 66% of the Moon is Illuminated
Sep 6
Waning Gibbous
Sep 8
Last Quarter
Sep 15
New
Sep 22
First Quarter
Sep 29
Full

Hourly Weather History & Observations

Time (MST) Temp. Dew Point Humidity Pressure Visibility Wind Dir Wind Speed Gust Speed Precip Events Conditions
12:53 AM 78.1 °F 44.1 °F 30% 29.82 in 10.0 mi WSW 3.5 mph - N/A   Clear
1:53 AM 75.0 °F 45.0 °F 34% 29.83 in 10.0 mi Calm Calm - N/A   Clear
2:53 AM 75.0 °F 46.9 °F 37% 29.82 in 10.0 mi NW 3.5 mph - N/A   Clear
3:53 AM 73.9 °F 46.0 °F 37% 29.82 in 10.0 mi ESE 3.5 mph - N/A   Clear
4:53 AM 71.1 °F 45.0 °F 39% 29.83 in 10.0 mi SE 6.9 mph - N/A   Clear
5:53 AM 73.0 °F 46.0 °F 38% 29.84 in 10.0 mi Calm Calm - N/A   Clear
6:53 AM 73.0 °F 48.0 °F 41% 29.87 in 10.0 mi Calm Calm - N/A   Clear
7:53 AM 77.0 °F 48.9 °F 37% 29.87 in 10.0 mi Calm Calm - N/A   Overcast
8:53 AM 80.1 °F 48.9 °F 34% 29.88 in 10.0 mi NNE 4.6 mph - N/A   Scattered Clouds
9:53 AM 82.0 °F 48.9 °F 31% 29.88 in 10.0 mi NNW 4.6 mph - N/A   Mostly Cloudy
10:53 AM 86.0 °F 48.9 °F 28% 29.87 in 10.0 mi NNE 4.6 mph - N/A   Mostly Cloudy
11:53 AM 87.1 °F 48.9 °F 27% 29.85 in 10.0 mi Variable 4.6 mph - N/A   Clear
12:53 PM 91.0 °F 46.9 °F 22% 29.83 in 10.0 mi Calm Calm - N/A   Clear
1:53 PM 91.9 °F 46.9 °F 21% 29.80 in 10.0 mi NW 3.5 mph - N/A   Clear
2:53 PM 93.0 °F 48.0 °F 21% 29.78 in 10.0 mi SSW 5.8 mph - N/A   Clear
3:53 PM 93.9 °F 46.0 °F 19% 29.75 in 10.0 mi Variable 3.5 mph - N/A   Clear
4:53 PM 93.0 °F 48.0 °F 21% 29.75 in 10.0 mi Variable 6.9 mph 20.7 mph N/A   Partly Cloudy
5:53 PM 91.0 °F 48.9 °F 23% 29.75 in 10.0 mi West 11.5 mph 20.7 mph N/A   Clear
6:53 PM 89.1 °F 46.9 °F 23% 29.76 in 10.0 mi West 8.1 mph 18.4 mph N/A   Clear
7:53 PM 87.1 °F 48.9 °F 27% 29.79 in 10.0 mi WSW 5.8 mph - N/A   Clear
8:53 PM 86.0 °F 46.9 °F 26% 29.82 in 10.0 mi West 8.1 mph - N/A   Clear
9:53 PM 84.9 °F 48.9 °F 29% 29.83 in 10.0 mi WSW 4.6 mph - N/A   Clear
10:53 PM 84.0 °F 50.0 °F 31% 29.84 in 10.0 mi Variable 4.6 mph - N/A   Clear
11:53 PM 82.9 °F 50.0 °F 32% 29.84 in 10.0 mi West 3.5 mph - N/A   Partly Cloudy